Location: Carri�res
(48.9069°N, 2.1792°E)
Time: 12:05:50
(UTC+00:00)

deb Kosmos- 1898 - Pass Details

Date: 03 August 2021
Orbit: 731 x 754 km, 74.0° (Epoch: 18 September)

Event Time Altitude Azimuth Distance (km) Brightness Sun altitude
Exits shadow 00:47:00 24° 123° (ESE) 1,529 ? -22.7°
Maximum altitude 00:48:17 26° 100° (E) 1,436 ? -22.7°
Drops below altitude 10° 00:52:31 10° 44° (NE) 2,278 ? -22.5°
Sets 00:55:12 0° 33° (NNE) 3,210 ? -22.4°
